Accueil
METAR-TAF:

METAR-TAF

Aéroports :

Euro, Pays-Bas

Plate-forme pétrolière

latitude: 51-59-52N, longitude: 3-16-30E, altitude: 18 m

Observation

Le bulletin a été fait il y a 42 minutes, à 18:55 UTC
Vent 7 kt de nord/nord-ouest avec des rafales jusqu'à 08 kt
Température 13°C
Humidité 94%
Pression 1025 hPa
Visibilité: 6000 m

METAR: EHSA 241855Z AUTO 34007G08KT 6000 ///////// 13/12 Q1025 W12/H3

Heure: 21:37 (19:37 UTC)


TAF: absent

Observations et prévisions météorologiques de plus de 4000 aéroports (messages METAR et TAF).

Les stations disponibles sont représentées par des disques jaunes et rouges sur la carte.

Passer la souris dessus pour voir le nom de la station.

Cliquer dessus pour voir les observations et prévisions météorologiques.

Pour changer de carte: cliquez sur les boutons verts avec une croix noire pour zoomer, sur le bouton vert avec un tiret pour effectuer un zoom arrière, ou sur les flèches vertes pour les cartes adjacentes.


METAR-TAF: